Вернуться в каталог

HULIANWANG DIGUI-64

АктивенСвязьPO
NORAD 65170·PAYLOAD·🇨🇳 China

Запущен Aug 13, 2025 с Wenchang Space Launch Site

Loading…

Ближайшие Пролёты (ближайшие 24 часа)

TLE

СвежийSource: Space-Track

Эпоха: Sep 14, 2026, 21:53 UTC

1 65170U 25174G   26257.91240724  .00000042  00000-0  63706-4 0  9991
2 65170  86.4932 221.5761 0002310  77.9883 282.1510 13.24399915 52669

Отслеживайте HULIANWANG DIGUI-64 в реальном времени с AllMySat

Download on the App Store